الصفحة الرئيسية
METAR-TAF:

METAR-TAF

مطار :

ليك هافاسو سيتي, أريزونا, الولايات المتحدة

دائرة عرض: 34-34-16N, خط طول: 114-21-30W, ارتفاع: 239 متر

مراقبة الطقس الحالي

تاريخ ووقت الإصدار 18 دقيقة قبل الساعة 09:40UTC
ريح 7 عقدة من الشمال/الشمال الغربي
درجة الحرارة 28°درجة مئوية
الرطوبة 10%
ضغط 1014 hPa
الرؤية: 16.1 كم
سماء صافية

METAR: KHII 290940Z AUTO 34007KT 10SM CLR 28/M06 A2995 RMK AO2

زمن: 02:58 (09:58 UTC)


TAF: مفقودة

أرصاد الطقس والتوقعات من أكثر من 4000 مطار (تقارير الطقس للمطار METAR والتنبؤ بالطقس بالمطارTAF).

المحطات المتاحة هي النقط الصفراء والحمراء على الخريطة.

حرك المؤشر فوق النقطة لمعرفة اسم المحطة.

ثم انقر لمعرفة أرصاد وتوقعات الطقس.

لتغيير الخارطة: اضغط على الأزرار الخضراء مع رمز الصليب الأسود للتكبير. على الزر الأخضر مع شرطة للتصغير، أو على الأسهم الخضراء للخرائط المجاورة.


METAR-TAF: